Voltar ao catálogo

STARLINK-35605

AtivoComunicaçõesVLEO
NORAD 66150·PAYLOAD·🇺🇸 United States

Lançado Oct 25, 2025 de Cape Canaveral Space Force Station

Loading…

Próximas Passagens (próximas 24 horas)

TLE

AtualizadoSource: CelesTrak SupGP

Época: Sep 14, 2026, 22:34 UTC

1 66150C 25240E   26257.94076389  .00042195  00000+0  12467-2 0  2578
2 66150  53.1566 261.3501 0001234  96.9580  48.1083 15.34368666    14

Acompanhe STARLINK-35605 em tempo real com AllMySat

Download on the App Store